Regional Weather Roundup
Issued by NWS

Home | Current Version | Previous Version | Text Only | Print | Product List | Glossary On
Versions: 1 2 3 4 5 6 7 8 9 10 11 12 13 14 15 16 17 18 19 20 21 22 23 24 25 26 27 28 29 30 31 32 33 34 35 36 37 38 39 40 41 42 43 44 45 46 47 48 49 50
000
ASUS43 KTOP 010108
RWRKS

WEATHER ROUNDUP FOR KANSAS
NATIONAL WEATHER SERVICE GOODLAND KS
800 PM CDT TUE JUN 30 2015

NOTE:  "FAIR" INDICATES FEW OR NO CLOUDS BELOW 12,000 FEET WITH NO
SIGNIFICANT WEATHER AND/OR OBSTRUCTIONS TO VISIBILITY.

KSZ001>006-013>018-027>032-041>047-010200-
NORTHWEST KANSAS

CITY           SKY/WX    TMP DP  RH WIND       PRES   REMARKS
GOODLAND       SUNNY     91  48  22 S8        29.92S
HAYS           MOSUNNY   99  52  20 SW17      29.82S HX  96
HILL CITY      MOSUNNY  100  49  17 SW10      29.82S HX  97
RUSSELL        PTSUNNY   97  51  21 SW18      29.80S
$$

KSZ061>065-074>080-084>089-010200-
SOUTHWEST KANSAS

CITY           SKY/WX    TMP DP  RH WIND       PRES   REMARKS
DODGE CITY     MOSUNNY   90  49  24 S13       29.91S
ELKHART          N/A     92  51  24 S14         N/A
GARDEN CITY    SUNNY     89  55  31 S14       29.90F
GREAT BEND     PTSUNNY   93  57  29 S14       29.84S
LIBERAL        MOSUNNY   91  50  24 S15       29.95S
$$

KSZ066>073-081>083-090>101-010200-
SOUTHEAST KANSAS

CITY           SKY/WX    TMP DP  RH WIND       PRES   REMARKS
CHANUTE        PTCLDY    85  71  63 SE7       29.87S
COFFEYVILLE    PTCLDY    86  70  58 S8        29.86S
HUTCHINSON     MOCLDY    93  57  29 S10       29.84S
MEDICINE LODGE   N/A     93  57  29 S7        29.87R
NEWTON         MOCLDY    90  57  33 S9        29.88S
PARSONS        PTCLDY    86  71  60 S3        29.88R
WICHITA INTL   MOCLDY    90  60  36 S9        29.85S
WICHITA JABRA  MOCLDY    91  59  33 S9        29.85S
WICHITA MCCONL MOCLDY    89  63  41 S9        29.86R
WINFIELD       MOCLDY    90  63  40 S14       29.88R
$$

KSZ007>012-019>026-033>040-048>060-102>105-010200-
NORTHEAST KANSAS

CITY           SKY/WX    TMP DP  RH WIND       PRES   REMARKS
CONCORDIA      PTCLDY    89  67  47 SE6       29.80F
EMPORIA        MOCLDY    89  67  47 S8        29.84S
LAWRENCE       MOCLDY    82  68  62 E7        29.86S
MANHATTAN      MOCLDY    89  70  53 E9        29.81R
OLATHE IND     MOCLDY    83  67  58 E7        29.89R
OLATHE EXE     MOCLDY    81  67  62 SE6       29.88S
SALINA         PTCLDY    95  58  28 S9        29.80S
TOPEKA BILLARD MOCLDY    84  68  58 E7        29.85S
TOPEKA FORBES  MOCLDY    85  67  54 E8        29.85S HAZE
$$


USA.gov is the U.S. government's official web portal to all federal, state and local government web resources and services.